Home   Weather   Farmington   Past weeks

Flag for USA Past Weather in Farmington, New Mexico, USA — Yesterday and Last 2 Weeks

Now
33 °F

Clear.


Feels Like: 27 °F
Forecast: 29 / 44 °F
Wind: 7 mph from West

Location: Four Corners Regional Airport

Current Time: Jan 17, 2017 at 11:17:06 pm

Latest Report: Jan 17, 2017 at 9:53 pm


Visibility: 10 mi

Pressure: 30.17 "Hg (24.65 "Hg at 1617m altitude)

Humidity: 88%

Dew Point: 30 °F

Location of FarmingtonLocation

Past Weather in Farmington — Graph

°F

Farmington Temperature Yesterday

Maximum temperature yesterday: 39 °F (at 12:11 pm)
Minimum temperature yesterday: 32 °F (at 8:34 pm)
Average temperature yesterday: 35 °F

High & Low Weather Summary for the Past Weeks

 TemperatureHumidityPressure
High53 °F (Jan 14, 2:53 pm)100% (Jan 5, 11:08 pm)30.66 "Hg (Jan 5, 11:08 pm)
Low11 °F (Jan 7, 2:53 am)29% (Jan 11, 10:53 am)29.51 "Hg (Jan 5, 7:53 pm)
Average36 °F76%30.07 "Hg
* Reported Jan 2 9:07 pm — Jan 17 9:53 pm, Farmington, Weather by CustomWeather, © 2017

Note: Actual official high and low records may vary slightly from our data, if they occured in-between our weather recording intervals... More about our weather records

Advertising

Farmington Weather History for the Previous 24 Hours

Scroll right to see more
 ConditionsComfort  
Time TempWeatherWind HumidityBarometerVisibility
9:53 pm
Tue, Jan 17
33 °FClear.7 mph88%30.17 "Hg10 mi
8:53 pm34 °FOvercast.6 mph88%30.17 "Hg10 mi
7:53 pm36 °FClear.3 mph85%30.15 "Hg10 mi
6:53 pm38 °FClear.6 mph83%30.15 "Hg10 mi
5:53 pm40 °FPassing clouds.9 mph80%30.14 "Hg10 mi
4:53 pm43 °FSunny.9 mph68%30.12 "Hg10 mi
4:24 pm44 °FScattered clouds.6 mph65%30.11 "Hg10 mi
3:53 pm44 °FSunny.5 mph60%30.12 "Hg10 mi
2:53 pm43 °FPassing clouds.5 mph68%30.14 "Hg10 mi
2:27 pm44 °FOvercast.3 mph68%30.12 "Hg10 mi
1:53 pm42 °FOvercast.No wind73%30.14 "Hg10 mi
12:53 pm40 °FPartly sunny.5 mph80%30.16 "Hg10 mi
11:53 am39 °FBroken clouds.7 mph86%30.19 "Hg10 mi
10:55 am38 °FMostly cloudy.3 mph86%30.18 "Hg10 mi
9:53 am35 °FMostly cloudy.6 mph92%30.22 "Hg10 mi
8:53 am34 °FFog.3 mph97%30.20 "Hg5 mi
7:53 am33 °FFog.No wind100%30.18 "Hg4 mi
6:53 am33 °FFog.No wind100%30.16 "Hg6 mi
6:21 am33 °FFog.No wind96%30.12 "Hg5 mi
5:56 am33 °FMostly cloudy.3 mph96%30.11 "Hg7 mi
5:09 am33 °FMostly cloudy.No wind96%30.11 "Hg8 mi
4:53 am33 °FMostly cloudy.5 mph96%30.15 "Hg9 mi
4:07 am33 °FFog.No wind96%30.11 "Hg6 mi
3:53 am33 °FMostly cloudy.No wind96%30.15 "Hg8 mi
2:53 am33 °FMostly cloudy.No wind92%30.14 "Hg10 mi
2:14 am32 °FMostly cloudy.No wind96%30.10 "Hg9 mi
1:53 am32 °FPassing clouds.No wind100%30.14 "Hg9 mi
1:38 am32 °FPassing clouds.No wind96%30.10 "Hg8 mi
1:22 am33 °FOvercast.No wind96%30.10 "Hg10 mi
12:53 am33 °FFog.3 mph92%30.13 "Hg6 mi
11:53 pm
Mon, Jan 16
33 °FOvercast.3 mph96%30.13 "Hg8 mi
Weather by CustomWeather, © 2017

See weather overviewHow to use our weather pages